Weather History for PAIL - June, 2013

Change the Weather History Date:

Monday, June 24, 2013

  Actual Average Record
Temperature  
Mean Temperature 56 °F -  
Max Temperature 66 °F 59 °F 83 °F (1953)
Min Temperature 46 °F 44 °F 34 °F (1949)
Degree Days  
Heating Degree Days 9    
Growing Degree Days 6 (Base 50)    
Moisture  
Dew Point 48 °F    
Average Humidity 83    
Maximum Humidity 100    
Minimum Humidity 48    
Precipitation  
Precipitation 0.01 in - - ()
Sea Level Pressure  
Sea Level Pressure 29.71 in    
Wind  
Wind Speed 3 mph (South)    
Max Wind Speed 6 mph    
Max Gust Speed -    
Visibility 9 miles    
Events Fog , Rain    
Averages and records for this station are not official NWS values.
T = Trace of Precipitation, MM = Missing Value Source: NWS Daily Summary

Daily Weather History Graph

Daily Weather History Graph

Search for Another Location

Airport or City:

Trip Planner

Search our weather history database for the weather conditions in past years. The results will help you decide how hot, cold, wet, or windy it might be!

Date:

Astronomy

Jun. 24, 2013 Rise Set
Actual Time 4:59 AM AKDT 11:44 PM AKDT
Civil Twilight 3:20 AM AKDT 1:23 AM AKDT
Nautical Twilight Sun does not rise Sun does not rise
Astronomical Twilight Sun does not rise Sun does not rise
Moon No Moon Rise 7:19 AM AKDT (6/24)
Length of Visible Light 22h 03m
Length of Day
18h 45m
Full, 97% of the Moon is Illuminated
Jun 24
Full
Jun 29
Last Quarter
Jul 7
New
Jul 15
First Quarter
Jul 22
Full

Hourly Weather History & Observations

Time (AKDT) Temp. Windchill Dew Point Humidity Pressure Visibility Wind Dir Wind Speed Gust Speed Precip Events Conditions
12:53 AM 46.9 °F - 46.0 °F 97% 29.71 in 10.0 mi WSW 4.6 mph - N/A   Partly Cloudy
1:53 AM 46.9 °F - 46.9 °F 100% 29.71 in 10.0 mi West 3.5 mph - 0.00 in Rain Light Rain
2:53 AM 48.0 °F - 46.9 °F 96% 29.72 in 10.0 mi WNW 3.5 mph - 0.00 in Rain Light Rain
3:53 AM 48.9 °F - 48.0 °F 97% 29.71 in 10.0 mi Calm Calm - 0.01 in Rain Light Rain
4:53 AM 46.9 °F - 46.9 °F 100% 29.70 in 10.0 mi SSW 3.5 mph - 0.00 in Rain Light Rain
5:53 AM 46.9 °F - 46.9 °F 100% 29.70 in 9.0 mi Calm Calm - 0.00 in Rain Light Rain
5:58 AM 46.4 °F - 46.4 °F 100% 29.70 in 1.5 mi Calm Calm - 0.00 in Rain Light Rain
6:07 AM 46.4 °F - 46.4 °F 100% 29.70 in 9.0 mi Calm Calm - 0.00 in Rain Light Rain
6:47 AM 46.4 °F 44.3 °F 46.4 °F 100% 29.71 in 2.5 mi ESE 4.6 mph - 0.01 in Rain Light Rain
6:53 AM 46.9 °F - 46.9 °F 100% 29.72 in 2.5 mi SE 3.5 mph - 0.01 in Rain Light Rain
7:49 AM 48.2 °F - 48.2 °F 100% 29.71 in 5.0 mi Calm Calm - 0.00 in Fog Overcast
7:53 AM 48.0 °F - 48.0 °F 100% 29.72 in 5.0 mi Calm Calm - 0.00 in Fog Overcast
8:01 AM 48.2 °F - 48.2 °F 100% 29.71 in 10.0 mi Calm Calm - N/A Fog Overcast
8:53 AM 50.0 °F - 48.9 °F 96% 29.71 in 10.0 mi Calm Calm - 0.00 in Fog Overcast
9:53 AM 51.1 °F - 50.0 °F 96% 29.71 in 10.0 mi ESE 3.5 mph - N/A Fog Overcast
10:53 AM 52.0 °F - 48.9 °F 89% 29.71 in 10.0 mi Calm Calm - 0.00 in   Overcast
11:53 AM 53.1 °F - 50.0 °F 89% 29.72 in 10.0 mi ESE 3.5 mph - N/A   Overcast
12:53 PM 55.0 °F - 50.0 °F 83% 29.72 in 10.0 mi Calm Calm - N/A   Overcast
1:53 PM 59.0 °F - 51.1 °F 75% 29.73 in 10.0 mi Calm Calm - N/A   Overcast
2:53 PM 60.1 °F - 50.0 °F 69% 29.73 in 10.0 mi Calm Calm - N/A   Overcast
3:53 PM 62.1 °F - 51.1 °F 67% 29.72 in 10.0 mi ESE 5.8 mph - N/A   Overcast
4:53 PM 64.9 °F - 50.0 °F 58% 29.71 in 10.0 mi Variable 3.5 mph - N/A   Mostly Cloudy
5:53 PM 64.9 °F - 48.9 °F 56% 29.71 in 10.0 mi SSE 4.6 mph - N/A   Scattered Clouds
6:53 PM 64.9 °F - 48.9 °F 56% 29.70 in 10.0 mi SSE 5.8 mph - N/A   Overcast
7:53 PM 64.0 °F - 48.0 °F 56% 29.70 in 10.0 mi South 3.5 mph - N/A   Partly Cloudy
8:53 PM 64.9 °F - 48.0 °F 54% 29.70 in 10.0 mi SW 3.5 mph - N/A   Partly Cloudy
9:53 PM 63.0 °F - 48.0 °F 58% 29.70 in 10.0 mi SW 4.6 mph - N/A   Clear
10:53 PM 59.0 °F - 48.0 °F 67% 29.70 in 10.0 mi WSW 5.8 mph - N/A   Clear
11:53 PM 55.9 °F - 48.0 °F 75% 29.70 in 10.0 mi NW 4.6 mph - N/A   Clear